Location: Poughquag
(41.6090°N, 73.6820°W)
Time: 05:12:57
(UTC-04:00)

STARLINK-1356 - Pass Details

Date: 29 May 2020
Orbit: 549 x 551 km, 53.0° (Epoch: 26 September)

Event Time Altitude Azimuth Distance (km) Brightness Sun altitude
Exits shadow 01:40:28 23° 298° (WNW) 1,220 5.5 -25.7°
Maximum altitude 01:42:03 29° 336° (NNW) 1,026 5.4 -25.7°
Drops below altitude 10° 01:45:43 10° 38° (NE) 1,829 7.1 -25.5°
Enters shadow 02:50:04 -57° 256° (WSW) 11,423 10.3 -21.1°
